TAM5LB SBBR-SASA

Flight info

Callsign TAM5LB
Flight time 3h 5m
Altitude 34000
Route SIREM UM403 VAS UM789 JUJ JUJ2A
Aircraft A21N/M-SDE2E3FGHIRWXY/LB1

Departure

Time 2026-04-27 13:58
Airport Presidente Juscelino Kubitschek International Airport (SBBR)

Arrival

Time 2026-04-27 17:03
Airport Martín Miguel de Güemes International Airport (SASA)
Time Latitude Longitude Altitude Speed Heading
2026-04-27 13:36 -15.87277 -47.91935 3478 ft 0 kts 356°
2026-04-27 13:46 -15.87285 -47.91935 3477 ft 4 kts 360°
2026-04-27 13:47 -15.87308 -47.91934 3477 ft 4 kts
2026-04-27 13:47 -15.87329 -47.91945 3477 ft 4 kts 61°
2026-04-27 13:47 -15.87334 -47.91970 3477 ft 4 kts 90°
2026-04-27 13:47 -15.87334 -47.91990 3477 ft 0 kts 86°
2026-04-27 13:49 -15.87334 -47.91989 3477 ft 0 kts 86°
2026-04-27 13:50 -15.87333 -47.91975 3477 ft 4 kts 86°
2026-04-27 13:50 -15.87331 -47.91936 3473 ft 7 kts 86°
2026-04-27 13:50 -15.87327 -47.91872 3477 ft 11 kts 86°
2026-04-27 13:50 -15.87321 -47.91784 3477 ft 13 kts 86°
2026-04-27 13:51 -15.87315 -47.91683 3473 ft 15 kts 86°
2026-04-27 13:51 -15.87304 -47.91588 3477 ft 12 kts 58°
2026-04-27 13:51 -15.87219 -47.91583 3475 ft 14 kts
2026-04-27 13:51 -15.87122 -47.91588 3477 ft 15 kts 357°
2026-04-27 13:52 -15.87014 -47.91595 3474 ft 16 kts 356°
2026-04-27 13:52 -15.86898 -47.91603 3475 ft 17 kts 355°
2026-04-27 13:52 -15.86774 -47.91613 3475 ft 18 kts 357°
2026-04-27 13:52 -15.86643 -47.91620 3476 ft 19 kts 357°
2026-04-27 13:53 -15.86481 -47.91665 3471 ft 10 kts 273°
2026-04-27 13:53 -15.86485 -47.91745 3473 ft 12 kts 267°
2026-04-27 13:53 -15.86490 -47.91838 3474 ft 14 kts 266°
2026-04-27 13:54 -15.86497 -47.91941 3474 ft 15 kts 266°
2026-04-27 13:54 -15.86504 -47.92054 3474 ft 16 kts 266°
2026-04-27 13:54 -15.86513 -47.92175 3474 ft 18 kts 266°
2026-04-27 13:54 -15.86522 -47.92306 3474 ft 19 kts 266°
2026-04-27 13:55 -15.86531 -47.92444 3473 ft 20 kts 266°
2026-04-27 13:55 -15.86539 -47.92586 3471 ft 20 kts 266°
2026-04-27 13:55 -15.86546 -47.92704 3469 ft 11 kts 265°
2026-04-27 13:55 -15.86531 -47.92762 3467 ft 9 kts 333°
2026-04-27 13:56 -15.86464 -47.92768 3466 ft 10 kts 357°
2026-04-27 13:56 -15.86410 -47.92759 3466 ft 8 kts 41°
2026-04-27 13:56 -15.86370 -47.92724 3465 ft 5 kts 26°
2026-04-27 13:56 -15.86355 -47.92705 3466 ft 4 kts 76°
2026-04-27 13:57 -15.86351 -47.92652 3466 ft 17 kts 88°
2026-04-27 13:57 -15.86329 -47.92300 3471 ft 87 kts 86°
2026-04-27 13:57 -15.86274 -47.91429 3469 ft 149 kts 86°
2026-04-27 13:57 -15.86197 -47.90271 3738 ft 164 kts 85°
2026-04-27 13:58 -15.86142 -47.89064 4285 ft 170 kts 92°
2026-04-27 13:58 -15.86444 -47.87899 4858 ft 168 kts 120°
2026-04-27 13:58 -15.87289 -47.87045 5214 ft 184 kts 150°
2026-04-27 13:58 -15.88591 -47.86687 5477 ft 205 kts 173°
2026-04-27 13:59 -15.90056 -47.86548 5875 ft 219 kts 173°
2026-04-27 13:59 -15.91616 -47.86371 6314 ft 233 kts 172°
2026-04-27 13:59 -15.93305 -47.86168 6625 ft 255 kts 172°
2026-04-27 13:59 -15.95129 -47.85944 6996 ft 272 kts 172°
2026-04-27 14:00 -15.97040 -47.85707 7556 ft 280 kts 172°
2026-04-27 14:00 -15.98989 -47.85462 8225 ft 285 kts 173°
2026-04-27 14:00 -16.00966 -47.85213 8926 ft 288 kts 173°
2026-04-27 14:00 -16.02952 -47.85122 9609 ft 292 kts 186°
2026-04-27 14:01 -16.04891 -47.85721 10263 ft 295 kts 208°
2026-04-27 14:01 -16.06487 -47.87114 10583 ft 310 kts 233°
2026-04-27 14:01 -16.07423 -47.89185 10829 ft 327 kts 258°
2026-04-27 14:01 -16.07652 -47.91601 11081 ft 345 kts 268°
2026-04-27 14:02 -16.07730 -47.94151 11319 ft 362 kts 268°
2026-04-27 14:02 -16.07877 -47.96824 11541 ft 378 kts 263°
2026-04-27 14:02 -16.08556 -47.99511 11739 ft 393 kts 247°
2026-04-27 14:02 -16.09797 -48.02054 11939 ft 406 kts 241°
2026-04-27 14:03 -16.11195 -48.04642 12281 ft 413 kts 240°
2026-04-27 14:03 -16.12602 -48.07254 12738 ft 416 kts 240°
2026-04-27 14:03 -16.14004 -48.09900 13204 ft 419 kts 240°
2026-04-27 14:03 -16.15410 -48.12570 13691 ft 423 kts 240°
2026-04-27 14:04 -16.16824 -48.15264 14126 ft 426 kts 240°
2026-04-27 14:04 -16.18250 -48.17978 14518 ft 429 kts 240°
2026-04-27 14:04 -16.19686 -48.20712 14920 ft 433 kts 240°
2026-04-27 14:04 -16.21117 -48.23437 15370 ft 436 kts 241°
2026-04-27 14:05 -16.22577 -48.26217 15835 ft 439 kts 241°
2026-04-27 14:05 -16.24109 -48.28978 16255 ft 442 kts 236°
2026-04-27 14:05 -16.26048 -48.31481 16638 ft 446 kts 228°
2026-04-27 14:05 -16.28141 -48.33871 17033 ft 448 kts 227°
2026-04-27 14:06 -16.30257 -48.36268 17418 ft 451 kts 227°
2026-04-27 14:06 -16.32382 -48.38684 17769 ft 455 kts 228°
2026-04-27 14:06 -16.34521 -48.41126 18132 ft 458 kts 228°
2026-04-27 14:06 -16.36667 -48.43582 18469 ft 460 kts 228°
2026-04-27 14:07 -16.38798 -48.46024 18759 ft 463 kts 228°
2026-04-27 14:07 -16.40966 -48.48509 19075 ft 465 kts 228°
2026-04-27 14:07 -16.43144 -48.51005 19426 ft 466 kts 228°
2026-04-27 14:07 -16.45328 -48.53510 19756 ft 469 kts 228°
2026-04-27 14:08 -16.47527 -48.56031 20077 ft 471 kts 228°
2026-04-27 14:08 -16.49730 -48.58559 20392 ft 473 kts 228°
2026-04-27 14:08 -16.51952 -48.61108 20677 ft 476 kts 228°
2026-04-27 14:08 -16.54185 -48.63670 21006 ft 479 kts 227°
2026-04-27 14:09 -16.56547 -48.66071 21434 ft 482 kts 222°
2026-04-27 14:09 -16.59037 -48.68416 21851 ft 484 kts 222°
2026-04-27 14:09 -16.61548 -48.70773 22236 ft 487 kts 222°
2026-04-27 14:09 -16.64070 -48.73139 22582 ft 490 kts 222°
2026-04-27 14:10 -16.66608 -48.75524 22902 ft 493 kts 222°
2026-04-27 14:10 -16.69161 -48.77925 23226 ft 495 kts 222°
2026-04-27 14:10 -16.71721 -48.80334 23527 ft 497 kts 222°
2026-04-27 14:10 -16.74295 -48.82757 23789 ft 500 kts 222°
2026-04-27 14:11 -16.76846 -48.85159 24029 ft 501 kts 222°
2026-04-27 14:11 -16.79433 -48.87598 24291 ft 502 kts 223°
2026-04-27 14:11 -16.82025 -48.90042 24551 ft 502 kts 223°
2026-04-27 14:11 -16.84608 -48.92477 24877 ft 500 kts 223°
2026-04-27 14:12 -16.87187 -48.94910 25213 ft 499 kts 223°
2026-04-27 14:12 -16.89758 -48.97336 25527 ft 498 kts 223°
2026-04-27 14:12 -16.92323 -48.99753 25854 ft 496 kts 223°
2026-04-27 14:12 -16.94894 -49.02152 26183 ft 495 kts 223°
2026-04-27 14:13 -16.97434 -49.04513 26527 ft 494 kts 223°
2026-04-27 14:13 -16.99992 -49.06895 26873 ft 493 kts 223°
2026-04-27 14:13 -17.02546 -49.09276 27228 ft 491 kts 223°
2026-04-27 14:13 -17.05091 -49.11652 27583 ft 490 kts 223°
2026-04-27 14:14 -17.07627 -49.14025 27919 ft 489 kts 223°
2026-04-27 14:14 -17.10138 -49.16416 28263 ft 488 kts 224°
2026-04-27 14:14 -17.12633 -49.18811 28608 ft 487 kts 224°
2026-04-27 14:14 -17.15122 -49.21198 28952 ft 486 kts 224°
2026-04-27 14:15 -17.17610 -49.23581 29288 ft 484 kts 224°
2026-04-27 14:15 -17.20059 -49.25928 29619 ft 484 kts 224°
2026-04-27 14:15 -17.22537 -49.28301 29947 ft 483 kts 224°
2026-04-27 14:15 -17.25014 -49.30672 30248 ft 482 kts 224°
2026-04-27 14:16 -17.27479 -49.33033 30546 ft 480 kts 224°
2026-04-27 14:16 -17.29937 -49.35387 30836 ft 479 kts 224°
2026-04-27 14:16 -17.32390 -49.37739 31109 ft 477 kts 224°
2026-04-27 14:16 -17.34835 -49.40083 31368 ft 476 kts 224°
2026-04-27 14:17 -17.37273 -49.42422 31636 ft 475 kts 224°
2026-04-27 14:17 -17.39707 -49.44756 31893 ft 474 kts 224°
2026-04-27 14:17 -17.42104 -49.47057 32138 ft 473 kts 224°
2026-04-27 14:17 -17.44529 -49.49386 32386 ft 472 kts 224°
2026-04-27 14:18 -17.46949 -49.51710 32631 ft 472 kts 224°
2026-04-27 14:18 -17.49366 -49.54030 32877 ft 471 kts 224°
2026-04-27 14:18 -17.51775 -49.56344 33109 ft 470 kts 224°
2026-04-27 14:18 -17.54182 -49.58657 33329 ft 469 kts 224°
2026-04-27 14:19 -17.56588 -49.60969 33535 ft 468 kts 224°
2026-04-27 14:19 -17.58986 -49.63277 33751 ft 468 kts 224°
2026-04-27 14:19 -17.61346 -49.65550 33941 ft 467 kts 224°
2026-04-27 14:19 -17.63740 -49.67854 34066 ft 467 kts 224°
2026-04-27 14:20 -17.66132 -49.70157 34071 ft 466 kts 224°
2026-04-27 14:20 -17.70909 -49.74760 34044 ft 466 kts 224°
2026-04-27 14:21 -17.75685 -49.79366 34040 ft 467 kts 224°
2026-04-27 14:21 -17.80469 -49.83982 34045 ft 467 kts 224°
2026-04-27 14:22 -17.85221 -49.88573 34038 ft 468 kts 224°
2026-04-27 14:22 -17.90007 -49.93203 34042 ft 468 kts 224°
2026-04-27 14:23 -17.94783 -49.97833 34043 ft 468 kts 224°
2026-04-27 14:23 -17.99569 -50.02471 34039 ft 468 kts 224°
2026-04-27 14:24 -18.04342 -50.07059 34042 ft 468 kts 224°
2026-04-27 14:24 -18.09164 -50.11662 34036 ft 468 kts 224°
2026-04-27 14:25 -18.13982 -50.16275 34037 ft 468 kts 224°
2026-04-27 14:25 -18.18795 -50.20892 34040 ft 469 kts 224°
2026-04-27 14:26 -18.23579 -50.25488 34047 ft 469 kts 224°
2026-04-27 14:26 -18.28394 -50.30115 34041 ft 469 kts 224°
2026-04-27 14:27 -18.33209 -50.34744 34048 ft 469 kts 224°
2026-04-27 14:27 -18.38016 -50.39375 34048 ft 469 kts 224°
2026-04-27 14:28 -18.42826 -50.44009 34054 ft 468 kts 225°
2026-04-27 14:28 -18.47601 -50.48611 34047 ft 468 kts 225°
2026-04-27 14:29 -18.52417 -50.53229 34042 ft 468 kts 225°
2026-04-27 14:29 -18.57245 -50.57823 34048 ft 468 kts 225°
2026-04-27 14:30 -18.62074 -50.62429 34052 ft 468 kts 225°
2026-04-27 14:30 -18.66857 -50.67001 34054 ft 467 kts 225°
2026-04-27 14:31 -18.71667 -50.71600 34051 ft 467 kts 225°
2026-04-27 14:31 -18.76480 -50.76205 34054 ft 467 kts 225°
2026-04-27 14:32 -18.81286 -50.80808 34050 ft 467 kts 225°
2026-04-27 14:32 -18.86069 -50.85388 34051 ft 467 kts 226°
2026-04-27 14:33 -18.90812 -50.90063 34056 ft 465 kts 226°
2026-04-27 14:33 -18.95538 -50.94728 34049 ft 465 kts 226°
2026-04-27 14:34 -19.00273 -50.99394 34039 ft 465 kts 226°
2026-04-27 14:34 -19.04973 -51.04028 34042 ft 465 kts 226°
2026-04-27 14:35 -19.09704 -51.08697 34044 ft 465 kts 226°
2026-04-27 14:35 -19.14432 -51.13368 34041 ft 465 kts 226°
2026-04-27 14:36 -19.19161 -51.18042 34043 ft 465 kts 226°
2026-04-27 14:36 -19.23883 -51.22711 34041 ft 465 kts 226°
2026-04-27 14:37 -19.28602 -51.27383 34041 ft 465 kts 226°
2026-04-27 14:37 -19.33291 -51.32029 34039 ft 465 kts 226°
2026-04-27 14:38 -19.38007 -51.36708 34041 ft 464 kts 227°
2026-04-27 14:38 -19.42714 -51.41383 34037 ft 464 kts 227°
2026-04-27 14:39 -19.47426 -51.46060 34038 ft 464 kts 227°
2026-04-27 14:39 -19.52101 -51.50706 34037 ft 464 kts 227°
2026-04-27 14:40 -19.56806 -51.55389 34042 ft 462 kts 227°
2026-04-27 14:40 -19.61494 -51.60056 34043 ft 461 kts 226°
2026-04-27 14:41 -19.66170 -51.64720 34047 ft 462 kts 227°
2026-04-27 14:41 -19.70799 -51.69375 34039 ft 462 kts 227°
2026-04-27 14:42 -19.75458 -51.74074 34036 ft 462 kts 227°
2026-04-27 14:42 -19.80116 -51.78773 34037 ft 462 kts 227°
2026-04-27 14:43 -19.84771 -51.83474 34034 ft 462 kts 227°
2026-04-27 14:43 -19.89396 -51.88145 34030 ft 462 kts 227°
2026-04-27 14:44 -19.94050 -51.92826 34034 ft 460 kts 226°
2026-04-27 14:44 -19.98699 -51.97505 34033 ft 460 kts 226°
2026-04-27 14:45 -20.03344 -52.02188 34029 ft 460 kts 226°
2026-04-27 14:45 -20.07950 -52.06833 34029 ft 457 kts 226°
2026-04-27 14:46 -20.12563 -52.11490 34038 ft 457 kts 226°
2026-04-27 14:46 -20.17175 -52.16149 34033 ft 457 kts 226°
2026-04-27 14:47 -20.21781 -52.20809 34032 ft 457 kts 226°
2026-04-27 14:47 -20.26389 -52.25473 34043 ft 457 kts 226°
2026-04-27 14:48 -20.30961 -52.30104 34040 ft 456 kts 227°
2026-04-27 14:48 -20.37846 -52.37083 34040 ft 455 kts 226°
2026-04-27 14:49 -20.42430 -52.41733 34037 ft 455 kts 227°
2026-04-27 14:49 -20.47021 -52.46392 34045 ft 455 kts 227°
2026-04-27 14:50 -20.51573 -52.51018 34051 ft 455 kts 227°
2026-04-27 14:50 -20.56158 -52.55682 34051 ft 455 kts 227°
2026-04-27 14:51 -20.60738 -52.60342 34047 ft 455 kts 227°
2026-04-27 14:51 -20.64545 -52.64219 34058 ft 455 kts 227°
2026-04-27 14:52 -20.69864 -52.69638 34057 ft 455 kts 227°
2026-04-27 14:52 -20.74443 -52.74313 34059 ft 455 kts 227°
2026-04-27 14:53 -20.79022 -52.78981 34058 ft 456 kts 227°
2026-04-27 14:53 -20.83612 -52.83666 34062 ft 456 kts 227°
2026-04-27 14:54 -20.88188 -52.88302 34060 ft 457 kts 226°
2026-04-27 14:54 -20.92831 -52.92942 34057 ft 457 kts 226°
2026-04-27 14:55 -20.97467 -52.97591 34073 ft 457 kts 227°
2026-04-27 14:55 -21.02101 -53.02247 34068 ft 457 kts 227°
2026-04-27 14:56 -21.06703 -53.06875 34060 ft 457 kts 227°
2026-04-27 14:56 -21.11285 -53.11604 34079 ft 457 kts 228°
2026-04-27 14:57 -21.15820 -53.16368 34068 ft 457 kts 228°
2026-04-27 14:57 -21.20356 -53.21139 34077 ft 457 kts 228°
2026-04-27 14:58 -21.24859 -53.25881 34059 ft 457 kts 228°
2026-04-27 14:58 -21.29391 -53.30658 34064 ft 457 kts 228°
2026-04-27 14:59 -21.33919 -53.35432 34119 ft 457 kts 228°
2026-04-27 14:59 -21.36185 -53.37824 34284 ft 457 kts 228°
2026-04-27 14:59 -21.38443 -53.40207 34496 ft 455 kts 228°
2026-04-27 15:00 -21.40696 -53.42587 34714 ft 453 kts 228°
2026-04-27 15:00 -21.42902 -53.44920 34938 ft 451 kts 228°
2026-04-27 15:00 -21.44664 -53.46783 35121 ft 449 kts 228°
2026-04-27 15:00 -21.46907 -53.49105 35350 ft 447 kts 227°
2026-04-27 15:01 -21.49153 -53.51399 35580 ft 444 kts 227°
2026-04-27 15:01 -21.51388 -53.53683 35818 ft 442 kts 227°
2026-04-27 15:01 -21.53607 -53.55950 36060 ft 439 kts 227°
2026-04-27 15:01 -21.55816 -53.58208 36291 ft 437 kts 227°
2026-04-27 15:02 -21.58007 -53.60452 36521 ft 434 kts 227°
2026-04-27 15:02 -21.60151 -53.62650 36766 ft 431 kts 227°
2026-04-27 15:02 -21.62311 -53.64862 37007 ft 427 kts 227°
2026-04-27 15:02 -21.64455 -53.67058 37250 ft 424 kts 227°
2026-04-27 15:03 -21.66578 -53.69234 37496 ft 419 kts 228°
2026-04-27 15:03 -21.68678 -53.71388 37750 ft 415 kts 228°
2026-04-27 15:03 -21.70753 -53.73517 37988 ft 410 kts 228°
2026-04-27 15:03 -21.72814 -53.75634 38098 ft 409 kts 229°
2026-04-27 15:04 -21.76914 -53.79846 38078 ft 412 kts 229°
2026-04-27 15:04 -21.81063 -53.84116 38064 ft 414 kts 229°
2026-04-27 15:05 -21.85234 -53.88409 38059 ft 416 kts 229°
2026-04-27 15:05 -21.89430 -53.92733 38051 ft 419 kts 229°
2026-04-27 15:06 -21.93624 -53.97056 38059 ft 421 kts 229°
2026-04-27 15:06 -21.97877 -54.01444 38052 ft 425 kts 229°
2026-04-27 15:07 -22.00025 -54.03663 37916 ft 431 kts 229°
2026-04-27 15:07 -22.02208 -54.05920 37691 ft 439 kts 228°
2026-04-27 15:07 -22.04427 -54.08214 37476 ft 445 kts 228°
2026-04-27 15:07 -22.06668 -54.10532 37254 ft 447 kts 229°
2026-04-27 15:08 -22.08887 -54.12826 37010 ft 448 kts 229°
2026-04-27 15:08 -22.11138 -54.15152 36763 ft 449 kts 229°
2026-04-27 15:08 -22.13393 -54.17484 36523 ft 449 kts 229°
2026-04-27 15:08 -22.15644 -54.19816 36279 ft 449 kts 229°
2026-04-27 15:09 -22.17898 -54.22152 36068 ft 449 kts 229°
2026-04-27 15:09 -22.20154 -54.24493 36028 ft 450 kts 229°
2026-04-27 15:09 -22.24680 -54.29188 36051 ft 451 kts 229°
2026-04-27 15:10 -22.29173 -54.33854 36061 ft 451 kts 229°
2026-04-27 15:10 -22.33698 -54.38558 36062 ft 451 kts 229°
2026-04-27 15:11 -22.38214 -54.43258 36061 ft 451 kts 229°
2026-04-27 15:11 -22.42727 -54.47955 36076 ft 448 kts 230°
2026-04-27 15:12 -22.47178 -54.52595 36072 ft 447 kts 230°
2026-04-27 15:12 -22.51651 -54.57262 36072 ft 447 kts 230°
2026-04-27 15:13 -22.56123 -54.61935 36072 ft 447 kts 230°
2026-04-27 15:13 -22.60584 -54.66623 36073 ft 447 kts 230°
2026-04-27 15:14 -22.65046 -54.71314 36075 ft 447 kts 230°
2026-04-27 15:14 -22.69472 -54.75973 36086 ft 447 kts 230°
2026-04-27 15:15 -22.73930 -54.80665 36080 ft 447 kts 230°
2026-04-27 15:15 -22.78380 -54.85357 36090 ft 445 kts 230°
2026-04-27 15:16 -22.82807 -54.90029 36082 ft 444 kts 230°
2026-04-27 15:16 -22.87203 -54.94670 36087 ft 444 kts 230°
2026-04-27 15:17 -22.91622 -54.99345 36089 ft 444 kts 230°
2026-04-27 15:17 -22.96040 -55.04019 36093 ft 443 kts 230°
2026-04-27 15:18 -23.00449 -55.08687 36091 ft 443 kts 231°
2026-04-27 15:18 -23.04859 -55.13362 36095 ft 443 kts 231°
2026-04-27 15:19 -23.09232 -55.18005 36100 ft 443 kts 231°
2026-04-27 15:19 -23.13638 -55.22685 36124 ft 441 kts 231°
2026-04-27 15:20 -23.18003 -55.27325 36117 ft 438 kts 231°
2026-04-27 15:20 -23.22344 -55.31948 36110 ft 437 kts 231°
2026-04-27 15:21 -23.26654 -55.36540 36105 ft 437 kts 231°
2026-04-27 15:21 -23.30992 -55.41169 36120 ft 437 kts 231°
2026-04-27 15:22 -23.35329 -55.45796 36114 ft 437 kts 231°
2026-04-27 15:22 -23.39662 -55.50425 36118 ft 436 kts 231°
2026-04-27 15:23 -23.43965 -55.55027 36130 ft 436 kts 231°
2026-04-27 15:23 -23.48291 -55.59656 36127 ft 436 kts 231°
2026-04-27 15:24 -23.52600 -55.64271 36134 ft 433 kts 232°
2026-04-27 15:24 -23.56893 -55.68874 36141 ft 433 kts 232°
2026-04-27 15:25 -23.61154 -55.73449 36137 ft 433 kts 232°
2026-04-27 15:25 -23.65440 -55.78056 36130 ft 433 kts 232°
2026-04-27 15:26 -23.69724 -55.82656 36133 ft 431 kts 232°
2026-04-27 15:26 -23.73997 -55.87252 36133 ft 431 kts 232°
2026-04-27 15:27 -23.78234 -55.91816 36141 ft 431 kts 232°
2026-04-27 15:27 -23.82502 -55.96417 36148 ft 431 kts 232°
2026-04-27 15:28 -23.86767 -56.01019 36170 ft 430 kts 232°
2026-04-27 15:28 -23.91007 -56.05598 36149 ft 428 kts 232°
2026-04-27 15:29 -23.95209 -56.10141 36148 ft 428 kts 232°
2026-04-27 15:29 -23.99441 -56.14718 36148 ft 428 kts 232°
2026-04-27 15:30 -24.03674 -56.19305 36148 ft 428 kts 232°
2026-04-27 15:30 -24.07909 -56.23896 36147 ft 428 kts 232°
2026-04-27 15:31 -24.12116 -56.28457 36149 ft 429 kts 232°
2026-04-27 15:31 -24.16347 -56.33055 36154 ft 428 kts 232°
2026-04-27 15:32 -24.20576 -56.37650 36146 ft 428 kts 232°
2026-04-27 15:32 -24.24806 -56.42252 36153 ft 428 kts 232°
2026-04-27 15:33 -24.29000 -56.46826 36153 ft 428 kts 232°
2026-04-27 15:33 -24.33222 -56.51432 36152 ft 428 kts 232°
2026-04-27 15:34 -24.37436 -56.56033 36157 ft 428 kts 232°
2026-04-27 15:34 -24.41649 -56.60635 36152 ft 427 kts 232°
2026-04-27 15:35 -24.45856 -56.65233 36160 ft 427 kts 233°
2026-04-27 15:35 -24.50022 -56.69799 36154 ft 426 kts 233°
2026-04-27 15:36 -24.54221 -56.74404 36156 ft 427 kts 233°
2026-04-27 15:36 -24.58416 -56.79007 36184 ft 426 kts 233°
2026-04-27 15:37 -24.62589 -56.83586 36164 ft 424 kts 233°
2026-04-27 15:37 -24.66714 -56.88124 36169 ft 421 kts 233°
2026-04-27 15:38 -24.70852 -56.92690 36168 ft 422 kts 233°
2026-04-27 15:38 -24.74994 -56.97258 36166 ft 422 kts 233°
2026-04-27 15:39 -24.79135 -57.01836 36165 ft 422 kts 233°
2026-04-27 15:39 -24.83245 -57.06384 36169 ft 422 kts 233°
2026-04-27 15:40 -24.87382 -57.10968 36168 ft 422 kts 233°
2026-04-27 15:40 -24.91506 -57.15535 36171 ft 420 kts 233°
2026-04-27 15:41 -24.95617 -57.20101 36184 ft 419 kts 233°
2026-04-27 15:41 -24.99691 -57.24627 36173 ft 418 kts 233°
2026-04-27 15:42 -25.03787 -57.29178 36177 ft 418 kts 233°
2026-04-27 15:42 -25.07880 -57.33736 36170 ft 418 kts 233°
2026-04-27 15:43 -25.11974 -57.38291 36196 ft 418 kts 234°
2026-04-27 15:43 -25.16057 -57.42845 36182 ft 417 kts 234°
2026-04-27 15:44 -25.20061 -57.47401 36165 ft 413 kts 238°
2026-04-27 15:44 -25.22935 -57.52687 36167 ft 395 kts 256°
2026-04-27 15:45 -25.23875 -57.58540 36174 ft 386 kts 273°
2026-04-27 15:45 -25.23420 -57.64419 36045 ft 383 kts 277°
2026-04-27 15:46 -25.23143 -57.67301 35847 ft 382 kts 277°
2026-04-27 15:46 -25.22872 -57.70226 35618 ft 383 kts 277°
2026-04-27 15:46 -25.22615 -57.73155 35384 ft 384 kts 277°
2026-04-27 15:46 -25.22362 -57.76092 35150 ft 385 kts 277°
2026-04-27 15:47 -25.22107 -57.79016 34918 ft 386 kts 277°
2026-04-27 15:47 -25.21839 -57.81974 34681 ft 388 kts 277°
2026-04-27 15:47 -25.21574 -57.84947 34462 ft 390 kts 277°
2026-04-27 15:47 -25.21310 -57.87933 34239 ft 391 kts 277°
2026-04-27 15:48 -25.21047 -57.90892 33990 ft 393 kts 277°
2026-04-27 15:48 -25.20782 -57.93897 33746 ft 393 kts 277°
2026-04-27 15:48 -25.20513 -57.96903 33485 ft 394 kts 277°
2026-04-27 15:49 -25.19965 -58.02924 32964 ft 395 kts 277°
2026-04-27 15:49 -25.19688 -58.05949 32724 ft 396 kts 277°
2026-04-27 15:49 -25.19412 -58.08975 32475 ft 397 kts 277°
2026-04-27 15:49 -25.19135 -58.12003 32228 ft 397 kts 277°
2026-04-27 15:50 -25.18863 -58.15004 31992 ft 398 kts 276°
2026-04-27 15:50 -25.18583 -58.18046 31750 ft 399 kts 277°
2026-04-27 15:50 -25.18288 -58.21099 31481 ft 402 kts 277°
2026-04-27 15:50 -25.17984 -58.24171 31244 ft 403 kts 277°
2026-04-27 15:51 -25.17680 -58.27252 31011 ft 404 kts 277°
2026-04-27 15:51 -25.17378 -58.30339 30776 ft 405 kts 276°
2026-04-27 15:51 -25.17083 -58.33435 30544 ft 406 kts 276°
2026-04-27 15:51 -25.16780 -58.36534 30313 ft 406 kts 276°
2026-04-27 15:52 -25.16481 -58.39594 30064 ft 407 kts 276°
2026-04-27 15:52 -25.16174 -58.42701 29794 ft 408 kts 276°
2026-04-27 15:52 -25.15865 -58.45815 29529 ft 408 kts 276°
2026-04-27 15:52 -25.15556 -58.48932 29275 ft 408 kts 276°
2026-04-27 15:53 -25.15253 -58.52046 29012 ft 409 kts 276°
2026-04-27 15:53 -25.14946 -58.55166 28752 ft 409 kts 276°
2026-04-27 15:53 -25.14635 -58.58296 28494 ft 410 kts 276°
2026-04-27 15:53 -25.14319 -58.61425 28238 ft 411 kts 276°
2026-04-27 15:54 -25.14109 -58.63503 28073 ft 412 kts 276°
2026-04-27 15:54 -25.13693 -58.67666 27730 ft 413 kts 276°
2026-04-27 15:54 -25.13385 -58.70816 27491 ft 414 kts 276°
2026-04-27 15:54 -25.13071 -58.73975 27247 ft 415 kts 276°
2026-04-27 15:55 -25.12858 -58.76112 27079 ft 415 kts 276°
2026-04-27 15:55 -25.12553 -58.79239 26843 ft 416 kts 276°
2026-04-27 15:55 -25.12240 -58.82415 26603 ft 417 kts 276°
2026-04-27 15:55 -25.11922 -58.85597 26364 ft 418 kts 276°
2026-04-27 15:56 -25.11599 -58.88787 26132 ft 419 kts 276°
2026-04-27 15:56 -25.11273 -58.91985 25904 ft 420 kts 276°
2026-04-27 15:56 -25.10845 -58.96230 25594 ft 421 kts 276°
2026-04-27 15:56 -25.10523 -58.99443 25336 ft 422 kts 276°
2026-04-27 15:57 -25.10194 -59.02684 25111 ft 427 kts 277°
2026-04-27 15:57 -25.09968 -59.04839 24965 ft 427 kts 277°
2026-04-27 15:57 -25.09631 -59.08099 24734 ft 428 kts 277°
2026-04-27 15:57 -25.09288 -59.11366 24515 ft 429 kts 277°
2026-04-27 15:58 -25.08948 -59.14631 24298 ft 429 kts 277°
2026-04-27 15:58 -25.08498 -59.18955 24176 ft 428 kts 277°
2026-04-27 15:58 -25.08268 -59.21159 24254 ft 429 kts 277°
2026-04-27 15:58 -25.07924 -59.24441 24521 ft 431 kts 277°
2026-04-27 15:59 -25.07593 -59.27690 24837 ft 432 kts 277°
2026-04-27 15:59 -25.07253 -59.30986 25190 ft 433 kts 277°
2026-04-27 15:59 -25.06909 -59.34274 25651 ft 430 kts 276°
2026-04-27 15:59 -25.06573 -59.37534 26150 ft 426 kts 276°
2026-04-27 16:00 -25.06232 -59.40762 26626 ft 422 kts 277°
2026-04-27 16:00 -25.05893 -59.43967 27076 ft 420 kts 277°
2026-04-27 16:00 -25.05557 -59.47156 27518 ft 418 kts 276°
2026-04-27 16:00 -25.05222 -59.50337 27938 ft 417 kts 276°
2026-04-27 16:01 -25.04890 -59.53503 28354 ft 415 kts 276°
2026-04-27 16:01 -25.04561 -59.56617 28764 ft 414 kts 276°
2026-04-27 16:01 -25.04222 -59.59758 29180 ft 412 kts 276°
2026-04-27 16:01 -25.03890 -59.62888 29608 ft 410 kts 276°
2026-04-27 16:02 -25.03556 -59.66006 30025 ft 408 kts 276°
2026-04-27 16:02 -25.03223 -59.69104 30400 ft 407 kts 276°
2026-04-27 16:02 -25.02901 -59.72201 30720 ft 405 kts 276°
2026-04-27 16:02 -25.02606 -59.75287 31028 ft 404 kts 276°
2026-04-27 16:03 -25.02313 -59.78363 31324 ft 404 kts 276°
2026-04-27 16:03 -25.02017 -59.81437 31613 ft 403 kts 276°
2026-04-27 16:03 -25.01717 -59.84462 31891 ft 402 kts 276°
2026-04-27 16:03 -25.01409 -59.87527 32171 ft 401 kts 276°
2026-04-27 16:04 -25.01108 -59.90578 32455 ft 400 kts 276°
2026-04-27 16:04 -25.00813 -59.93630 32738 ft 399 kts 276°
2026-04-27 16:04 -25.00518 -59.96664 33004 ft 398 kts 276°
2026-04-27 16:04 -25.00217 -59.99700 33263 ft 397 kts 276°
2026-04-27 16:05 -24.99920 -60.02723 33506 ft 397 kts 276°
2026-04-27 16:05 -24.99625 -60.05746 33746 ft 396 kts 276°
2026-04-27 16:05 -24.99332 -60.08721 33969 ft 395 kts 276°
2026-04-27 16:05 -24.99034 -60.11729 34198 ft 395 kts 277°
2026-04-27 16:06 -24.98734 -60.14737 34386 ft 394 kts 277°
2026-04-27 16:06 -24.98433 -60.17735 34590 ft 393 kts 277°
2026-04-27 16:06 -24.98130 -60.20726 34787 ft 392 kts 276°
2026-04-27 16:06 -24.97832 -60.23708 34986 ft 391 kts 276°
2026-04-27 16:07 -24.97534 -60.26674 35179 ft 389 kts 277°
2026-04-27 16:07 -24.97233 -60.29639 35373 ft 388 kts 277°
2026-04-27 16:07 -24.96932 -60.32589 35570 ft 387 kts 277°
2026-04-27 16:07 -24.96638 -60.35488 35748 ft 386 kts 277°
2026-04-27 16:08 -24.96339 -60.38418 35924 ft 385 kts 277°
2026-04-27 16:08 -24.96037 -60.41343 36094 ft 384 kts 277°
2026-04-27 16:08 -24.95736 -60.44262 36226 ft 383 kts 277°
2026-04-27 16:09 -24.95138 -60.50066 36227 ft 380 kts 276°
2026-04-27 16:09 -24.94251 -60.58695 36212 ft 379 kts 276°
2026-04-27 16:10 -24.93055 -60.70291 36202 ft 383 kts 277°
2026-04-27 16:11 -24.92144 -60.79041 36210 ft 383 kts 276°
2026-04-27 16:12 -24.91232 -60.87741 36214 ft 383 kts 276°
2026-04-27 16:13 -24.90320 -60.96486 36210 ft 383 kts 277°
2026-04-27 16:13 -24.89400 -61.05230 36235 ft 382 kts 276°
2026-04-27 16:14 -24.88166 -61.16762 36214 ft 380 kts 276°
2026-04-27 16:15 -24.86917 -61.28324 36216 ft 380 kts 277°
2026-04-27 16:16 -24.85669 -61.39837 36214 ft 380 kts 277°
2026-04-27 16:17 -24.84410 -61.51379 36210 ft 380 kts 277°
2026-04-27 16:18 -24.83140 -61.62953 36219 ft 383 kts 276°
2026-04-27 16:19 -24.82501 -61.68774 36218 ft 383 kts 276°
2026-04-27 16:20 -24.80592 -61.80261 36217 ft 384 kts 283°
2026-04-27 16:21 -24.78476 -61.88763 36214 ft 384 kts 283°
2026-04-27 16:22 -24.76708 -62.00258 36209 ft 382 kts 276°
2026-04-27 16:22 -24.75770 -62.08960 36222 ft 382 kts 276°
2026-04-27 16:23 -24.74791 -62.17654 36221 ft 382 kts 277°
2026-04-27 16:24 -24.74151 -62.23416 36229 ft 382 kts 277°
2026-04-27 16:25 -24.72847 -62.34967 36193 ft 381 kts 277°
2026-04-27 16:26 -24.71526 -62.46590 36221 ft 383 kts 277°
2026-04-27 16:27 -24.70213 -62.58177 36219 ft 383 kts 277°
2026-04-27 16:28 -24.68547 -62.72691 36217 ft 384 kts 277°
2026-04-27 16:29 -24.66873 -62.87237 36225 ft 383 kts 277°
2026-04-27 16:30 -24.65535 -62.98818 36231 ft 383 kts 277°
2026-04-27 16:31 -24.63838 -63.13337 36238 ft 383 kts 277°
2026-04-27 16:32 -24.62800 -63.22007 36228 ft 383 kts 277°
2026-04-27 16:33 -24.61769 -63.30742 36230 ft 385 kts 277°
2026-04-27 16:33 -24.61090 -63.36581 36239 ft 385 kts 277°
2026-04-27 16:34 -24.60400 -63.42379 36247 ft 385 kts 277°
2026-04-27 16:34 -24.59707 -63.48222 36243 ft 385 kts 277°
2026-04-27 16:35 -24.59013 -63.54061 36252 ft 385 kts 277°
2026-04-27 16:36 -24.57968 -63.62812 36252 ft 385 kts 277°
2026-04-27 16:36 -24.57271 -63.68608 36259 ft 385 kts 277°
2026-04-27 16:37 -24.56564 -63.74441 36271 ft 385 kts 277°
2026-04-27 16:37 -24.55861 -63.80269 36269 ft 385 kts 277°
2026-04-27 16:38 -24.55147 -63.86098 36262 ft 385 kts 277°
2026-04-27 16:38 -24.54442 -63.91884 36269 ft 385 kts 277°
2026-04-27 16:39 -24.53732 -63.97709 36269 ft 385 kts 277°
2026-04-27 16:39 -24.53019 -64.03531 36279 ft 385 kts 277°
2026-04-27 16:40 -24.52305 -64.09371 36277 ft 386 kts 277°
2026-04-27 16:40 -24.51612 -64.15161 36284 ft 385 kts 277°
2026-04-27 16:41 -24.50900 -64.21010 36264 ft 388 kts 277°
2026-04-27 16:41 -24.50187 -64.26889 36275 ft 388 kts 277°
2026-04-27 16:42 -24.49476 -64.32719 36281 ft 388 kts 277°
2026-04-27 16:42 -24.48746 -64.38605 36261 ft 391 kts 277°
2026-04-27 16:43 -24.48022 -64.44523 36272 ft 391 kts 277°
2026-04-27 16:43 -24.47259 -64.50448 36273 ft 393 kts 278°
2026-04-27 16:43 -24.46863 -64.53406 36166 ft 388 kts 278°
2026-04-27 16:44 -24.46472 -64.56339 35814 ft 390 kts 278°
2026-04-27 16:44 -24.46083 -64.59246 35462 ft 388 kts 277°
2026-04-27 16:44 -24.45693 -64.62179 34585 ft 391 kts 277°
2026-04-27 16:44 -24.45300 -64.65156 33531 ft 396 kts 277°
2026-04-27 16:45 -24.44900 -64.68168 32467 ft 401 kts 277°
2026-04-27 16:45 -24.44494 -64.71211 31441 ft 405 kts 277°
2026-04-27 16:45 -24.44082 -64.74275 30489 ft 407 kts 277°
2026-04-27 16:45 -24.43671 -64.77349 29444 ft 408 kts 277°
2026-04-27 16:46 -24.43259 -64.80424 28403 ft 408 kts 277°
2026-04-27 16:46 -24.42852 -64.83465 27419 ft 408 kts 277°
2026-04-27 16:46 -24.42438 -64.86541 26451 ft 407 kts 277°
2026-04-27 16:46 -24.42026 -64.89613 25519 ft 407 kts 277°
2026-04-27 16:47 -24.41614 -64.92676 24618 ft 406 kts 277°
2026-04-27 16:47 -24.41200 -64.95733 23719 ft 404 kts 277°
2026-04-27 16:47 -24.40788 -64.98775 22724 ft 403 kts 277°
2026-04-27 16:47 -24.40504 -65.01825 21722 ft 400 kts 271°
2026-04-27 16:48 -24.40677 -65.04857 20756 ft 398 kts 261°
2026-04-27 16:48 -24.41359 -65.07794 19820 ft 398 kts 251°
2026-04-27 16:48 -24.42514 -65.10504 18925 ft 398 kts 242°
2026-04-27 16:49 -24.46132 -65.15086 16956 ft 401 kts 222°
2026-04-27 16:49 -24.48343 -65.16975 15991 ft 407 kts 219°
2026-04-27 16:49 -24.50596 -65.18856 15053 ft 406 kts 219°
2026-04-27 16:49 -24.52839 -65.20744 14138 ft 406 kts 218°
2026-04-27 16:50 -24.55072 -65.22643 13138 ft 406 kts 219°
2026-04-27 16:50 -24.57302 -65.24543 12255 ft 405 kts 219°
2026-04-27 16:50 -24.59484 -65.26391 11643 ft 397 kts 219°
2026-04-27 16:50 -24.61635 -65.28213 11329 ft 381 kts 219°
2026-04-27 16:51 -24.63676 -65.29955 11237 ft 361 kts 219°
2026-04-27 16:51 -24.65603 -65.31604 11213 ft 341 kts 219°
2026-04-27 16:51 -24.67417 -65.33156 11208 ft 320 kts 219°
2026-04-27 16:51 -24.69124 -65.34616 11208 ft 303 kts 219°
2026-04-27 16:52 -24.70763 -65.36017 11210 ft 290 kts 219°
2026-04-27 16:52 -24.72308 -65.37335 11206 ft 272 kts 219°
2026-04-27 16:52 -24.73743 -65.38561 11208 ft 261 kts 220°
2026-04-27 16:52 -24.75175 -65.39788 11218 ft 261 kts 219°
2026-04-27 16:53 -24.76600 -65.41008 11226 ft 260 kts 219°
2026-04-27 16:53 -24.78030 -65.42230 11226 ft 260 kts 220°
2026-04-27 16:53 -24.79459 -65.43454 11230 ft 261 kts 220°
2026-04-27 16:53 -24.80891 -65.44679 11231 ft 260 kts 220°
2026-04-27 16:54 -24.82321 -65.45903 11233 ft 261 kts 220°
2026-04-27 16:54 -24.83752 -65.47129 11231 ft 260 kts 220°
2026-04-27 16:54 -24.85174 -65.48320 11228 ft 262 kts 217°
2026-04-27 16:54 -24.86732 -65.49334 11139 ft 257 kts 210°
2026-04-27 16:55 -24.88310 -65.50264 10720 ft 259 kts 210°
2026-04-27 16:55 -24.89910 -65.51204 10293 ft 261 kts 210°
2026-04-27 16:55 -24.91513 -65.52150 9885 ft 262 kts 209°
2026-04-27 16:55 -24.93111 -65.53097 9516 ft 260 kts 209°
2026-04-27 16:56 -24.94698 -65.54039 9123 ft 259 kts 209°
2026-04-27 16:56 -24.96282 -65.54981 8737 ft 258 kts 209°
2026-04-27 16:56 -24.97851 -65.55914 8396 ft 255 kts 209°
2026-04-27 16:56 -24.99391 -65.56832 8059 ft 255 kts 209°
2026-04-27 16:57 -25.00909 -65.57736 7957 ft 239 kts 209°
2026-04-27 16:57 -25.02397 -65.58444 7928 ft 231 kts 191°
2026-04-27 16:57 -25.03968 -65.58390 7528 ft 227 kts 160°
2026-04-27 16:57 -25.05321 -65.57548 7144 ft 224 kts 131°
2026-04-27 16:58 -25.06189 -65.56152 7004 ft 220 kts 107°
2026-04-27 16:58 -25.06346 -65.54532 6981 ft 213 kts 73°
2026-04-27 16:58 -25.05632 -65.53158 6979 ft 207 kts 37°
2026-04-27 16:58 -25.04399 -65.52551 7013 ft 183 kts
2026-04-27 16:59 -25.03216 -65.52425 6961 ft 164 kts
2026-04-27 16:59 -25.02125 -65.52307 6745 ft 153 kts 12°
2026-04-27 16:59 -25.01104 -65.52013 6337 ft 151 kts 11°
2026-04-27 16:59 -25.00013 -65.51768 6113 ft 169 kts 12°
2026-04-27 17:00 -24.98109 -65.51354 6082 ft 167 kts 12°
2026-04-27 17:00 -24.96592 -65.51025 5969 ft 164 kts 13°
2026-04-27 17:00 -24.95478 -65.50785 5736 ft 168 kts 13°
2026-04-27 17:01 -24.94331 -65.50539 5536 ft 164 kts 13°
2026-04-27 17:01 -24.93296 -65.50321 5344 ft 141 kts 13°
2026-04-27 17:01 -24.92334 -65.50116 5139 ft 139 kts 13°
2026-04-27 17:01 -24.91404 -65.49914 4949 ft 139 kts 14°
2026-04-27 17:02 -24.90447 -65.49676 4803 ft 139 kts 14°
2026-04-27 17:02 -24.89517 -65.49474 4573 ft 135 kts 12°
2026-04-27 17:02 -24.88584 -65.49260 4336 ft 138 kts 12°
2026-04-27 17:02 -24.87639 -65.49060 4146 ft 140 kts 13°
2026-04-27 17:03 -24.86713 -65.48862 4024 ft 129 kts 13°
2026-04-27 17:03 -24.85985 -65.48705 4025 ft 81 kts 10°
2026-04-27 17:03 -24.85593 -65.48624 4024 ft 33 kts 12°
2026-04-27 17:03 -24.85434 -65.48591 4023 ft 23 kts 11°
2026-04-27 17:04 -24.85274 -65.48558 4022 ft 24 kts 11°
2026-04-27 17:04 -24.85104 -65.48522 4023 ft 26 kts 11°
2026-04-27 17:04 -24.84922 -65.48482 4024 ft 28 kts 11°
2026-04-27 17:04 -24.84768 -65.48448 4024 ft 20 kts 11°
2026-04-27 17:05 -24.84684 -65.48402 4022 ft 8 kts 42°
2026-04-27 17:05 -24.84635 -65.48352 4022 ft 11 kts 42°
2026-04-27 17:05 -24.84596 -65.48289 4022 ft 9 kts 71°
2026-04-27 17:05 -24.84574 -65.48216 4022 ft 8 kts 72°
2026-04-27 17:06 -24.84556 -65.48151 4022 ft 10 kts 72°
2026-04-27 17:06 -24.84537 -65.48086 4023 ft 9 kts 72°
2026-04-27 17:06 -24.84521 -65.48032 4023 ft 7 kts 71°
2026-04-27 17:06 -24.84506 -65.47982 4022 ft 5 kts 71°
2026-04-27 17:07 -24.84485 -65.47959 4022 ft 2 kts 24°
2026-04-27 17:07 -24.84471 -65.47952 4022 ft 2 kts 21°